Location: Unspecified
(0.0000°N, 0.0000°E)
Time: 21:39:41
(UTC+00:00)

DMSP F15 (USA 147) - Pass Details

Date: 05 October 2020
Orbit: 829 x 845 km, 99.0° (Epoch: 26 October)

Event Time Altitude Azimuth Distance (km) Brightness Sun altitude
Rises 03:48:50 0° 9° (N) 3,354 8.4 -29.8°
Reaches altitude 10° 03:51:10 10° 7° (N) 2,424 7.6 -29.2°
Enters shadow 03:52:16 17° 6° (N) 1,997 7.1 -28.9°
Exits shadow 04:04:07 - 196° (SSW) 3,315 8.2 -26.0°
Sets 04:04:13 0° 196° (SSW) 3,356 8.2 -25.9°
